User: anonymous   Login
Location: Columbia
(38.9520°N, 92.3340°W)
Time: 06:22:56
(UTC-05:00)
Language:

Cosmos 1633 - Orbit

View from above orbital plane
View from above orbital plane
View from above satellite
View from above satellite

Ground track
Ground track

The orbit data is extracted from the following two-line orbital elements,

1 15592U 85020A   15186.85294424  .00007039  00000-0  28662-3 0  9992
2 15592 082.5410 311.0842 0015922 164.2778 312.7505 15.24199804655616
Epoch (UTC): 05 July 2015 20:28:14
Eccentricity: 0.0015922
inclination: 82.5410°
perigee height: 482 km
apogee height: 504 km
right ascension of ascending node: 311.0842°
argument of perigee: 164.2778°
revolutions per day: 15.24199804
mean anomaly at epoch: 312.7505°
orbit number at epoch: 65561

The dashed part of the orbit path shows where the satellite is in the earth's shadow,  

DLR